sat.trackr.live / text

‹ back to catalog

ORBCOMM FM109

NORAD 40086 · 2014-040A

PAYLOAD ACTIVE UNKNOWN

§ Identity

Operator
Country
ORB
Launch date
2014-07-14
Launch site
AFETR
Launch vehicle
Mass (kg)
RCS (m²)
0.44

Purposes: comms

External: N2YO · Heavens-Above · Gunter

§ Orbital elements

Epoch: 2026-05-25T03:42:51.194880Z

Period
98.71 min
Inclination
47.0019°
Eccentricity
0.0000916
Mean motion
14.58815408 rev/d
Perigee alt
696.4 km
Apogee alt
697.6 km
Semi-major
7,075.1 km
B*
7.5934e-5
RAAN
200.3808°
Arg perigee
162.6306°
Mean anomaly
197.4611°
Rev number
63,098

§ Raw data

ORBCOMM FM1091 40086U 14040A   26145.15475920  .00000188  00000+0  75934-4 0  99962 40086  47.0019 200.3808 0000916 162.6306 197.4611 14.58815408630981

JSON: /api/v1/satellites/40086 · /tle

For live sub-satellite position, see the globe view (requires WebGL).

§ Visibility from observer

Set your observer location to see the next 7 days of passes ≥ 10°. The values pass through the URL so the page stays shareable.

No JS? Fill the form by hand. The geolocation button needs JavaScript.

§ Radio — SatNOGS DB

ModeDescriptionDownlinkUplink
FM Telemetry 137.250 MHz

1 transmitter · refreshed weekly from db.satnogs.org